Home > Weather > Riga > Past weeks

Flag for Latvia Past Weather in Riga, Latvia — Yesterday and Last 2 Weeks

Now
63 °F

Clear.


Feels Like: 63 °F
Forecast: 61 / 82 °F
Wind: No wind

Location: Riga Airport

Current Time: Jul 2, 2016 at 1:41:51 AM

Latest Report: Jul 2, 2016 at 1:20 AM


Visibility: 4 mi

Pressure: 30.01 "Hg

Humidity: 100%

Dew Point: 63 °F

Location of RigaLocation

Past Weather in Riga — Graph

°F

Riga Temperature Yesterday

Maximum temperature yesterday: 77 °F (at 2:50 PM)
Minimum temperature yesterday: 63 °F (at 3:20 AM)
Average temperature yesterday: 69 °F

High & Low Weather Summary for the Past Weeks

 TemperatureHumidityPressure
High90 °F (Jun 25, 3:20 PM)100% (Jun 17, 5:50 AM)30.30 "Hg (Jun 17, 5:50 AM)
Low50 °F (Jun 28, 3:50 AM)40% (Jun 24, 4:50 PM)29.33 "Hg (Jun 18, 5:20 AM)
Average68 °F75%29.97 "Hg
* Reported Jun 17 12:20 AM — Jul 2 12:20 AM, Riga, Weather by CustomWeather, © 2016

Note: Actual official high and low records may vary slightly from our data, if they occured in-between our weather recording intervals... More about our weather records

Advertising

Riga Weather History for the Previous 24 Hours

Scroll right to see more
 ConditionsComfort  
Time TempWeatherWind HumidityBarometerVisibility
12:20 AM
Sat, Jul 2
63 °FClear.No wind100%30.01 "Hg6 mi
11:50 PM
Fri, Jul 1
64 °FClear.1 mph100%30.01 "Hg10 mi
11:20 PM64 °FClear.3 mph100%30.01 "Hg10 mi
10:50 PM66 °FSunny.5 mph94%30.01 "Hg10 mi
10:20 PM66 °FSunny.1 mph94%30.01 "Hg10 mi
9:50 PM68 °FSunny.1 mph88%30.01 "Hg10 mi
9:20 PM70 °FSunny.3 mph88%29.98 "Hg10 mi
8:50 PM72 °FSunny.2 mph83%29.98 "Hg10 mi
8:20 PM73 °FPassing clouds.3 mph74%29.98 "HgN/A
7:50 PM73 °FPassing clouds.1 mph74%29.98 "HgN/A
7:20 PM73 °FPassing clouds.2 mph74%29.98 "HgN/A
6:50 PM72 °FPassing clouds.6 mph78%29.98 "HgN/A
6:20 PM70 °FPassing clouds.6 mph88%29.98 "HgN/A
5:50 PM72 °FThunderstorms. Broken clouds.2 mph73%29.98 "HgN/A
5:20 PM75 °FThunderstorms. Broken clouds.5 mph65%29.98 "HgN/A
4:50 PM77 °FScattered clouds.9 mph61%29.95 "HgN/A
4:20 PM77 °FScattered clouds.7 mph65%29.95 "HgN/A
3:50 PM75 °FBroken clouds.6 mph65%29.95 "HgN/A
3:20 PM77 °FBroken clouds.7 mph65%29.95 "HgN/A
2:50 PM77 °FBroken clouds.8 mph69%29.95 "HgN/A
2:20 PM75 °FPartly sunny.6 mph74%29.95 "HgN/A
1:50 PM75 °FPartly sunny.3 mph74%29.95 "HgN/A
1:20 PM73 °FPartly sunny.7 mph74%29.98 "HgN/A
12:50 PM73 °FScattered clouds.8 mph74%29.98 "HgN/A
12:20 PM72 °FScattered clouds.9 mph78%29.98 "HgN/A
11:50 AM70 °FScattered clouds.7 mph78%29.98 "HgN/A
11:20 AM68 °FScattered clouds.7 mph83%29.98 "HgN/A
10:50 AM68 °FScattered clouds.9 mph83%29.95 "HgN/A
10:20 AM68 °FPassing clouds.6 mph83%29.95 "HgN/A
9:50 AM68 °FSunny.6 mph83%29.95 "Hg10 mi
9:20 AM68 °FSunny.2 mph83%29.95 "Hg10 mi
8:50 AM66 °FPassing clouds.3 mph88%29.95 "HgN/A
8:20 AM66 °FSunny.5 mph88%29.95 "Hg10 mi
7:50 AM64 °FPassing clouds.5 mph94%29.95 "HgN/A
7:20 AM64 °FPassing clouds.5 mph94%29.95 "HgN/A
6:50 AM63 °FLight rain. Scattered clouds.3 mph100%29.95 "Hg6 mi
6:20 AM63 °FLight rain. Partly sunny.3 mph94%29.95 "Hg6 mi
5:50 AM63 °FRain. Partly sunny.No wind94%29.95 "Hg4 mi
5:20 AM63 °FSprinkles. Passing clouds.3 mph94%29.95 "HgN/A
4:50 AM63 °FSprinkles. Passing clouds.6 mph94%29.95 "HgN/A
4:20 AM63 °FSprinkles. Passing clouds.2 mph94%29.95 "Hg4 mi
3:50 AM63 °FSprinkles. Passing clouds.No wind94%29.95 "HgN/A
3:20 AM63 °FSprinkles. Passing clouds.No wind94%29.98 "HgN/A
2:50 AM64 °FSprinkles. Passing clouds.2 mph88%29.95 "HgN/A
2:20 AM66 °FPassing clouds.5 mph83%29.95 "HgN/A
1:50 AM66 °FSprinkles. Passing clouds.2 mph78%29.95 "HgN/A
1:20 AM66 °FClear.No wind78%29.95 "Hg10 mi
Weather by CustomWeather, © 2016

See weather overviewHow to use our weather pages